Lid_Strength_Index
16 16 16 17 17 18 18 18 18 18 18 18 18 18 18 18 18 18 18 18 18 17
16 17 17 17 18 18 18 18 18 18 19 18 18 18 19 19 19 19 19 19 18 18
16 17 17 17 18 18 18 18 19 19 19 19 19 19 19 19 19 19 19 18 19 18
17 17 17 18 18 18 18 19 19 19 19 19 19 19 19 19 19 19 19 18 18 18
17 17 18 18 19 19 19 19 19 19 19 19 19 19 19 19 19 19 18 18 18 18
18 18 18 19 19 19 19 19 19 19 19 19 19 19 19 18 18 18 18 17 18 17
18 18 18 18 19 18 18 19 19 19 19 19 19 18 18 18 18 18 17 17 16 16
18 18 18 18 18 18 18 18 18 18 19 18 18 18 18 18 18 18 18 17 15 15
18 18 18 17 18 18 18 18 19 18 19 19 18 15 14 17 17 17 17 16 15 15
17 17 17 17 17 17 18 18 18 19 18 19 18 14 13 13 17 16 16 15 15 14
17 17 17 17 17 17 17 18 18 18 18 18 18 13 12 12 15 15 15 15 14 14
16 16 17 17 17 17 17 18 18 17 19 19 19 13 12 12 15 14 14 14 13 13
15 15 16 16 16 17 16 17 18 18 19 19 19 13 11 10 14 17 14 14 13 11
15 15 15 16 17 18 18 19 20 19 19 19 18 17 11 10 13 13 16 15 14 13